Weather History for Mammoth, CA

Change the Weather History Date:

Friday, June 7, 2013

  Actual Average Record
Temperature  
Mean Temperature 69 °F -  
Max Temperature 87 °F 67 °F 87 °F (2013)
Min Temperature 51 °F 56 °F 30 °F (2012)
Cooling Degree Days 4    
Growing Degree Days 19 (Base 50)    
Moisture  
Dew Point 29 °F    
Average Humidity 25    
Maximum Humidity 44    
Minimum Humidity 9    
Precipitation  
Precipitation 0.00 in - - ()
Sea Level Pressure  
Sea Level Pressure 30.25 in    
Wind  
Wind Speed 6 mph (WNW)    
Max Wind Speed 15 mph    
Max Gust Speed 22 mph    
Visibility 10 miles    
Events      
Averages and records for this station are not official NWS values.
T = Trace of Precipitation, MM = Missing Value Source: NWS Daily Summary

Daily Weather History Graph

Daily Weather History Graph

Search for Another Location

Airport:

Trip Planner

Search our weather history database for the weather conditions in past years. The results will help you decide how hot, cold, wet, or windy it might be!

Date:

Astronomy

Jun. 07, 2013 Rise Set
Actual Time 5:33 AM PDT 8:15 PM PDT
Civil Twilight 5:02 AM PDT 8:46 PM PDT
Nautical Twilight 4:24 AM PDT 9:24 PM PDT
Astronomical Twilight 3:40 AM PDT 10:08 PM PDT
Moon 4:58 AM PDT (6/7) 7:34 PM PDT (6/7)
Length of Visible Light 15h 43m
Length of Day
14h 41m
Waning Crescent, 1% of the Moon is Illuminated
Jun 7
Waning Crescent
Jun 8
New
Jun 16
First Quarter
Jun 23
Full
Jun 29
Last Quarter

Hourly Weather History & Observations

Time (PDT) Temp. Dew Point Humidity Pressure Visibility Wind Dir Wind Speed Gust Speed Precip Events Conditions
12:15 AM 55.4 °F 30.2 °F 38% 30.26 in 10.0 mi West 4.6 mph - N/A   Clear
12:35 AM 55.4 °F 28.4 °F 36% 30.26 in 10.0 mi Calm Calm - N/A   Clear
12:55 AM 57.2 °F 28.4 °F 33% 30.26 in 10.0 mi West 11.5 mph - N/A   Clear
1:15 AM 55.4 °F 30.2 °F 38% 30.26 in 10.0 mi West 8.1 mph - N/A   Clear
1:35 AM 55.4 °F 30.2 °F 38% 30.26 in 10.0 mi West 6.9 mph - N/A   Clear
1:55 AM 55.4 °F 30.2 °F 38% 30.26 in 10.0 mi West 9.2 mph - N/A   Clear
2:15 AM 53.6 °F 30.2 °F 41% 30.26 in 10.0 mi North 3.5 mph - N/A   Clear
2:35 AM 53.6 °F 30.2 °F 41% 30.26 in 10.0 mi West 3.5 mph - N/A   Clear
2:55 AM 55.4 °F 30.2 °F 38% 30.26 in 10.0 mi West 5.8 mph - N/A   Clear
3:15 AM 53.6 °F 30.2 °F 41% 30.26 in 10.0 mi West 6.9 mph - N/A   Clear
3:35 AM 53.6 °F 30.2 °F 41% 30.26 in 10.0 mi West 11.5 mph - N/A   Clear
3:55 AM 53.6 °F 30.2 °F 41% 30.27 in 10.0 mi West 9.2 mph - N/A   Clear
4:15 AM 53.6 °F 30.2 °F 41% 30.26 in 10.0 mi West 11.5 mph - N/A   Clear
4:35 AM 55.4 °F 30.2 °F 38% 30.27 in 10.0 mi West 15.0 mph - N/A   Clear
4:55 AM 51.8 °F 30.2 °F 44% 30.27 in 10.0 mi WNW 5.8 mph - N/A   Clear
5:15 AM 51.8 °F 30.2 °F 44% 30.27 in 10.0 mi NNW 3.5 mph - N/A   Clear
5:35 AM 51.8 °F 30.2 °F 44% 30.27 in 10.0 mi West 6.9 mph - N/A   Clear
5:55 AM 51.8 °F 30.2 °F 44% 30.28 in 10.0 mi North 3.5 mph - N/A   Clear
6:15 AM 51.8 °F 30.2 °F 44% 30.28 in 10.0 mi Calm Calm - N/A   Clear
6:35 AM 57.2 °F 32.0 °F 38% 30.29 in 10.0 mi Calm Calm - N/A   Clear
6:55 AM 59.0 °F 32.0 °F 36% 30.29 in 10.0 mi Calm Calm - N/A   Clear
7:15 AM 60.8 °F 33.8 °F 36% 30.29 in 10.0 mi West 8.1 mph - N/A   Clear
7:35 AM 66.2 °F 35.6 °F 32% 30.29 in 10.0 mi West 5.8 mph - N/A   Clear
7:55 AM 69.8 °F 35.6 °F 28% 30.29 in 10.0 mi West 6.9 mph - N/A   Clear
8:15 AM 71.6 °F 30.2 °F 22% 30.29 in 10.0 mi West 6.9 mph - N/A   Clear
8:35 AM 73.4 °F 28.4 °F 19% 30.29 in 10.0 mi West 9.2 mph - N/A   Clear
8:55 AM 75.2 °F 28.4 °F 18% 30.29 in 10.0 mi West 6.9 mph - N/A   Clear
9:15 AM 75.2 °F 28.4 °F 18% 30.29 in 10.0 mi West 5.8 mph - N/A   Clear
9:35 AM 77.0 °F 26.6 °F 16% 30.29 in 10.0 mi NNW 6.9 mph - N/A   Clear
9:55 AM 77.0 °F 26.6 °F 16% 30.29 in 10.0 mi West 4.6 mph - N/A   Clear
10:15 AM 78.8 °F 26.6 °F 15% 30.29 in 10.0 mi Calm Calm - N/A   Clear
10:35 AM 78.8 °F 26.6 °F 15% 30.28 in 10.0 mi NW 5.8 mph - N/A   Clear
10:55 AM 80.6 °F 24.8 °F 13% 30.28 in 10.0 mi NE 4.6 mph - N/A   Clear
11:15 AM 80.6 °F 24.8 °F 13% 30.27 in 10.0 mi SSE 10.4 mph - N/A   Clear
11:35 AM 82.4 °F 24.8 °F 12% 30.28 in 10.0 mi South 6.9 mph - N/A   Clear
11:55 AM 84.2 °F 23.0 °F 11% 30.27 in 10.0 mi SSE 8.1 mph - N/A   Clear
12:15 PM 82.4 °F 19.4 °F 10% 30.27 in 10.0 mi SE 6.9 mph - N/A   Clear
12:35 PM 86.0 °F 21.2 °F 9% 30.26 in 10.0 mi SE 5.8 mph 18.4 mph N/A   Clear
12:55 PM 86.0 °F 23.0 °F 10% 30.26 in 10.0 mi East 11.5 mph - N/A   Clear
1:15 PM 84.2 °F 23.0 °F 11% 30.26 in 10.0 mi West 6.9 mph - N/A   Clear
1:35 PM 84.2 °F 23.0 °F 11% 30.25 in 10.0 mi ESE 4.6 mph - N/A   Clear
1:55 PM 86.0 °F 23.0 °F 10% 30.24 in 10.0 mi SSE 8.1 mph - N/A   Clear
2:15 PM 86.0 °F 23.0 °F 10% 30.24 in 10.0 mi Calm Calm - N/A   Clear
2:35 PM 86.0 °F 23.0 °F 10% 30.23 in 10.0 mi SE 6.9 mph 16.1 mph N/A   Clear
2:55 PM 84.2 °F 23.0 °F 11% 30.23 in 10.0 mi NNE 3.5 mph - N/A   Clear
3:15 PM 84.2 °F 21.2 °F 10% 30.22 in 10.0 mi NW 6.9 mph - N/A   Clear
3:35 PM 84.2 °F 23.0 °F 11% 30.22 in 10.0 mi West 3.5 mph - N/A   Clear
3:55 PM 87.8 °F 23.0 °F 9% 30.21 in 10.0 mi WNW 11.5 mph 17.3 mph N/A   Clear
4:15 PM 84.2 °F 21.2 °F 10% 30.21 in 10.0 mi Calm Calm - N/A   Clear
4:35 PM 84.2 °F 21.2 °F 10% 30.20 in 10.0 mi Calm Calm - N/A   Clear
4:55 PM 84.2 °F 21.2 °F 10% 30.19 in 10.0 mi NW 9.2 mph - N/A   Clear
5:15 PM 82.4 °F 21.2 °F 10% 30.19 in 10.0 mi Calm Calm - N/A   Clear
5:35 PM 86.0 °F 21.2 °F 9% 30.19 in 10.0 mi Calm Calm - N/A   Clear
5:55 PM 86.0 °F 21.2 °F 9% 30.18 in 10.0 mi North 9.2 mph - N/A   Clear
6:15 PM 86.0 °F 21.2 °F 9% 30.18 in 10.0 mi NNW 10.4 mph - N/A   Clear
6:35 PM 80.6 °F 30.2 °F 16% 30.19 in 10.0 mi NW 9.2 mph 21.9 mph N/A   Clear
6:55 PM 82.4 °F 32.0 °F 16% 30.19 in 10.0 mi WNW 12.7 mph - N/A   Clear
7:15 PM 80.6 °F 33.8 °F 18% 30.19 in 10.0 mi WNW 11.5 mph 17.3 mph N/A   Clear
7:35 PM 78.8 °F 35.6 °F 21% 30.19 in 10.0 mi WNW 10.4 mph - N/A   Clear
7:55 PM 77.0 °F 35.6 °F 22% 30.19 in 10.0 mi NW 4.6 mph - N/A   Clear
8:15 PM 71.6 °F 37.4 °F 29% 30.20 in 10.0 mi NNW 9.2 mph - N/A   Clear
8:35 PM 73.4 °F 37.4 °F 27% 30.20 in 10.0 mi West 5.8 mph 19.6 mph N/A   Clear
8:55 PM 71.6 °F 37.4 °F 29% 30.21 in 10.0 mi West 10.4 mph - N/A   Clear
9:15 PM 68.0 °F 37.4 °F 33% 30.22 in 10.0 mi West 6.9 mph - N/A   Clear
9:35 PM 66.2 °F 37.4 °F 35% 30.22 in 10.0 mi West 8.1 mph - N/A   Clear
9:55 PM 64.4 °F 37.4 °F 37% 30.23 in 10.0 mi West 8.1 mph - N/A   Clear
10:15 PM 64.4 °F 35.6 °F 34% 30.24 in 10.0 mi West 10.4 mph - N/A   Clear
10:35 PM 64.4 °F 35.6 °F 34% 30.24 in 10.0 mi West 9.2 mph - N/A   Clear
10:55 PM 62.6 °F 35.6 °F 37% 30.24 in 10.0 mi West 10.4 mph - N/A   Clear
11:15 PM 60.8 °F 37.4 °F 42% 30.24 in 10.0 mi West 11.5 mph - N/A   Clear
11:35 PM 59.0 °F 35.6 °F 42% 30.24 in 10.0 mi West 11.5 mph 17.3 mph N/A   Clear
11:55 PM 59.0 °F 33.8 °F 39% 30.24 in 10.0 mi WNW 5.8 mph 17.3 mph N/A   Clear